| time (UTC) | temp F | wind direction | speed knots | gust knots | rain 1hr in | rain 24hr in | rain mn in | humidity % | barometer mb |
| 20260508212010 | 80 | 124 | 1.7 | 2.6 | 0.00 | 0.00 | 0.00 | 72 | 1008.2 |
| 20260508211510 | 80 | 105 | 0.0 | 1.7 | 0.00 | 0.00 | 0.00 | 72 | 1008.3 |
| 20260508211010 | 80 | 217 | 0.9 | 3.5 | 0.00 | 0.00 | 0.00 | 73 | 1008.4 |
| 20260508210510 | 80 | 113 | 0.0 | 3.5 | 0.00 | 0.00 | 0.00 | 72 | 1008.6 |
| 20260508210010 | 80 | 98 | 1.7 | 4.3 | 0.00 | 0.00 | 0.00 | 73 | 1008.6 |
| 20260508205510 | 80 | 84 | 0.9 | 4.3 | 0.00 | 0.00 | 0.00 | 72 | 1008.8 |
| 20260508205009 | 80 | 123 | 3.5 | 5.2 | 0.00 | 0.00 | 0.00 | 72 | 1008.7 |
| 20260508204509 | 80 | 71 | 2.6 | 5.2 | 0.00 | 0.00 | 0.00 | 72 | 1008.8 |
| 20260508204009 | 80 | 147 | 1.7 | 3.5 | 0.00 | 0.00 | 0.00 | 73 | 1008.8 |
| 20260508203509 | 80 | 111 | 2.6 | 5.2 | 0.00 | 0.00 | 0.00 | 72 | 1009.0 |
| 20260508203009 | 80 | 125 | 3.5 | 5.2 | 0.00 | 0.00 | 0.00 | 72 | 1008.9 |
| 20260508202510 | 80 | 121 | 4.3 | 4.3 | 0.00 | 0.00 | 0.00 | 72 | 1008.9 |
| 20260508202009 | 80 | 85 | 0.9 | 4.3 | 0.00 | 0.00 | 0.00 | 72 | 1009.0 |
| 20260508201509 | 80 | 107 | 2.6 | 3.5 | 0.00 | 0.00 | 0.00 | 72 | 1009.0 |
| 20260508201009 | 80 | 126 | 2.6 | 7.8 | 0.00 | 0.00 | 0.00 | 73 | 1008.8 |
| 20260508200509 | 79 | 127 | 3.5 | 7.8 | 0.00 | 0.00 | 0.00 | 72 | 1009.0 |
| 20260508200009 | 79 | 139 | 3.5 | 3.5 | 0.00 | 0.00 | 0.00 | 73 | 1009.2 |
| 20260508195509 | 79 | 219 | 0.9 | 6.1 | 0.00 | 0.00 | 0.00 | 73 | 1009.2 |
| 20260508195009 | 79 | 82 | 0.0 | 6.1 | 0.00 | 0.00 | 0.00 | 73 | 1009.3 |
| 20260508194509 | 79 | 187 | 2.6 | 3.5 | 0.00 | 0.00 | 0.00 | 73 | 1009.4 |
| 20260508194009 | 78 | 101 | 0.0 | 2.6 | 0.00 | 0.00 | 0.00 | 73 | 1009.4 |
| 20260508193009 | 78 | 5 | 0.9 | 7.0 | 0.00 | 0.00 | 0.00 | 73 | 1009.6 |
| 20260508192509 | 78 | 254 | 2.6 | 2.6 | 0.00 | 0.00 | 0.00 | 73 | 1009.6 |
| 20260508192009 | 78 | 112 | 0.0 | 1.7 | 0.00 | 0.00 | 0.00 | 73 | 1009.7 |
| 20260508191509 | 78 | 105 | 1.7 | 2.6 | 0.00 | 0.00 | 0.00 | 73 | 1009.7 |
| 20260508191008 | 78 | 112 | 0.9 | 2.6 | 0.00 | 0.00 | 0.00 | 73 | 1009.8 |
| 20260508190038 | 78 | 108 | 0.9 | 3.5 | 0.00 | 0.00 | 0.00 | 73 | 1009.8 |
| 20260508185508 | 78 | 115 | 0.9 | 1.7 | 0.00 | 0.00 | 0.00 | 73 | 1009.9 |
| 20260508185008 | 78 | 103 | 0.9 | 0.9 | 0.00 | 0.00 | 0.00 | 73 | 1010.0 |
| 20260508184508 | 77 | 55 | 0.0 | 4.3 | 0.00 | 0.00 | 0.00 | 73 | 1010.0 |
| 20260508184008 | 77 | 109 | 1.7 | 4.3 | 0.00 | 0.00 | 0.00 | 73 | 1010.1 |
| 20260508183508 | 77 | 164 | 1.7 | 5.2 | 0.00 | 0.00 | 0.00 | 74 | 1010.2 |
| 20260508183008 | 76 | 105 | 3.5 | 5.2 | 0.00 | 0.00 | 0.00 | 74 | 1010.2 |
| 20260508182508 | 76 | 115 | 0.9 | 7.8 | 0.00 | 0.00 | 0.00 | 74 | 1010.4 |
| 20260508182009 | 76 | 135 | 3.5 | 7.8 | 0.00 | 0.00 | 0.00 | 74 | 1010.5 |
| 20260508181008 | 76 | 85 | 0.0 | 5.2 | 0.00 | 0.00 | 0.00 | 74 | 1010.7 |
| 20260508180508 | 76 | 84 | 0.0 | 2.6 | 0.00 | 0.00 | 0.00 | 73 | 1010.8 |
| 20260508180038 | 76 | 108 | 0.0 | 0.9 | 0.00 | 0.00 | 0.00 | 74 | 1010.9 |
| 20260508175508 | 76 | 47 | 0.0 | 2.6 | 0.00 | 0.00 | 0.00 | 74 | 1010.9 |
| 20260508175008 | 75 | 101 | 0.9 | 2.6 | 0.00 | 0.00 | 0.00 | 74 | 1010.9 |
| 20260508174508 | 75 | 94 | 0.0 | 1.7 | 0.00 | 0.00 | 0.00 | 74 | 1011.0 |
| 20260508174008 | 75 | 103 | 0.9 | 0.9 | 0.00 | 0.00 | 0.00 | 73 | 1010.9 |
| 20260508173508 | 76 | 129 | 0.9 | 0.9 | 0.00 | 0.00 | 0.00 | 73 | 1011.1 |
| 20260508173008 | 76 | 98 | 0.0 | 3.5 | 0.00 | 0.00 | 0.00 | 73 | 1011.3 |
| 20260508172008 | 76 | 128 | 0.0 | 2.6 | 0.00 | 0.00 | 0.00 | 73 | 1011.3 |
| 20260508171508 | 76 | 75 | 0.9 | 0.9 | 0.00 | 0.00 | 0.00 | 73 | 1011.3 |
| 20260508171008 | 76 | 67 | 0.0 | 0.9 | 0.00 | 0.00 | 0.00 | 73 | 1011.2 |
| 20260508170508 | 76 | 111 | 0.0 | 2.6 | 0.00 | 0.00 | 0.00 | 73 | 1011.2 |
| 20260508165507 | 76 | 128 | 1.7 | 2.6 | 0.00 | 0.00 | 0.00 | 72 | 1011.4 |
| 20260508165008 | 76 | 111 | 0.0 | 4.3 | 0.00 | 0.00 | 0.00 | 73 | 1011.3 |
| 20260508164507 | 76 | 347 | 2.6 | 4.3 | 0.00 | 0.00 | 0.00 | 73 | 1011.3 |
| 20260508164007 | 75 | 67 | 0.0 | 2.6 | 0.00 | 0.00 | 0.00 | 73 | 1011.3 |
| 20260508163007 | 74 | 131 | 0.9 | 2.6 | 0.00 | 0.00 | 0.00 | 74 | 1011.3 |
| 20260508162507 | 73 | 138 | 0.9 | 2.6 | 0.00 | 0.00 | 0.00 | 75 | 1011.4 |
| 20260508162007 | 73 | 109 | 0.9 | 1.7 | 0.00 | 0.00 | 0.00 | 76 | 1011.6 |
| 20260508161507 | 73 | 139 | 0.0 | 0.9 | 0.00 | 0.00 | 0.00 | 75 | 1011.7 |
| 20260508160507 | 72 | 90 | 0.0 | 0.0 | 0.00 | 0.00 | 0.00 | 76 | 1012.0 |
| 20260508160007 | 72 | 90 | 0.0 | 0.9 | 0.00 | 0.00 | 0.00 | 76 | 1012.1 |
| 20260508155507 | 71 | 90 | 0.0 | 0.9 | 0.00 | 0.00 | 0.00 | 76 | 1012.0 |
| 20260508155007 | 71 | 90 | 0.0 | 1.7 | 0.00 | 0.00 | 0.00 | 76 | 1011.9 |
| 20260508154507 | 71 | 327 | 1.7 | 1.7 | 0.00 | 0.00 | 0.00 | 77 | 1011.9 |
| 20260508153507 | 70 | 153 | 0.0 | 0.9 | 0.00 | 0.00 | 0.00 | 77 | 1012.3 |
| 20260508153007 | 69 | 118 | 0.0 | 3.5 | 0.00 | 0.00 | 0.00 | 77 | 1012.2 |
| 20260508152507 | 69 | 123 | 3.5 | 3.5 | 0.00 | 0.00 | 0.00 | 77 | 1012.2 |
| 20260508152007 | 69 | 319 | 1.7 | 2.6 | 0.00 | 0.00 | 0.00 | 77 | 1012.3 |
| 20260508151006 | 68 | 150 | 0.9 | 1.7 | 0.00 | 0.00 | 0.00 | 78 | 1012.4 |
| 20260508150506 | 68 | 146 | 0.0 | 1.7 | 0.00 | 0.00 | 0.00 | 78 | 1012.5 |
| 20260508150007 | 67 | 111 | 0.0 | 1.7 | 0.00 | 0.00 | 0.00 | 78 | 1012.5 |
| 20260508145506 | 67 | 111 | 0.9 | 1.7 | 0.00 | 0.00 | 0.00 | 78 | 1012.5 |
| 20260508145006 | 67 | 104 | 0.0 | 0.9 | 0.00 | 0.00 | 0.00 | 78 | 1012.4 |
| 20260508144506 | 67 | 104 | 0.0 | 1.7 | 0.00 | 0.00 | 0.00 | 78 | 1012.4 |
| 20260508144007 | 67 | 104 | 0.9 | 1.7 | 0.00 | 0.00 | 0.00 | 78 | 1012.5 |
| 20260508143507 | 66 | 88 | 0.0 | 2.6 | 0.00 | 0.00 | 0.00 | 78 | 1012.5 |
| 20260508143006 | 66 | 323 | 1.7 | 2.6 | 0.00 | 0.00 | 0.00 | 78 | 1012.4 |
| 20260508142506 | 66 | 67 | 0.9 | 2.6 | 0.00 | 0.00 | 0.00 | 78 | 1012.2 |
| 20260508142006 | 65 | 96 | 0.0 | 2.6 | 0.00 | 0.00 | 0.00 | 78 | 1012.3 |
| 20260508141506 | 65 | 143 | 2.6 | 2.6 | 0.00 | 0.00 | 0.00 | 78 | 1012.5 |
| 20260508141006 | 65 | 111 | 0.9 | 2.6 | 0.00 | 0.00 | 0.00 | 78 | 1012.6 |
| 20260508140506 | 65 | 111 | 0.9 | 3.5 | 0.00 | 0.00 | 0.00 | 78 | 1012.6 |
| 20260508140006 | 65 | 111 | 3.5 | 3.5 | 0.00 | 0.00 | 0.00 | 78 | 1012.7 |
| 20260508135506 | 65 | 94 | 0.0 | 1.7 | 0.00 | 0.00 | 0.00 | 77 | 1012.7 |
| 20260508135006 | 65 | 42 | 1.7 | 1.7 | 0.00 | 0.00 | 0.00 | 77 | 1012.7 |
| 20260508134506 | 65 | 190 | 0.9 | 1.7 | 0.00 | 0.00 | 0.00 | 77 | 1012.7 |
| 20260508134006 | 65 | 88 | 0.0 | 1.7 | 0.00 | 0.00 | 0.00 | 77 | 1012.7 |
| 20260508133506 | 65 | 101 | 0.0 | 0.9 | 0.00 | 0.00 | 0.00 | 77 | 1012.9 |
| 20260508133006 | 65 | 101 | 0.0 | 0.9 | 0.00 | 0.00 | 0.00 | 77 | 1013.0 |
| 20260508132506 | 65 | 101 | 0.0 | 0.9 | 0.00 | 0.00 | 0.00 | 77 | 1013.0 |
| 20260508132006 | 65 | 101 | 0.0 | 1.7 | 0.00 | 0.00 | 0.00 | 77 | 1013.0 |
| 20260508131536 | 65 | 96 | 0.0 | 1.7 | 0.00 | 0.00 | 0.00 | 77 | 1012.8 |
| 20260508130535 | 65 | 98 | 0.9 | 1.7 | 0.00 | 0.00 | 0.00 | 77 | 1012.6 |
| 20260508130036 | 65 | 85 | 0.9 | 1.7 | 0.00 | 0.00 | 0.00 | 77 | 1012.7 |
| 20260508125535 | 65 | 76 | 0.0 | 1.7 | 0.00 | 0.00 | 0.00 | 77 | 1012.7 |
| 20260508125035 | 65 | 45 | 0.0 | 0.9 | 0.00 | 0.00 | 0.00 | 77 | 1012.7 |
| 20260508124535 | 65 | 223 | 0.0 | 2.6 | 0.00 | 0.00 | 0.00 | 77 | 1012.8 |
| 20260508124035 | 65 | 278 | 0.0 | 2.6 | 0.00 | 0.00 | 0.00 | 77 | 1012.6 |
| 20260508123535 | 65 | 5 | 1.7 | 2.6 | 0.00 | 0.00 | 0.00 | 77 | 1012.6 |
| 20260508123035 | 65 | 87 | 0.0 | 1.7 | 0.00 | 0.00 | 0.00 | 77 | 1012.6 |
| 20260508122535 | 65 | 27 | 0.0 | 3.5 | 0.00 | 0.00 | 0.00 | 77 | 1012.6 |
| 20260508122034 | 65 | 351 | 0.9 | 3.5 | 0.00 | 0.00 | 0.00 | 77 | 1012.6 |
| 20260508121535 | 65 | 59 | 0.0 | 0.9 | 0.00 | 0.00 | 0.00 | 77 | 1012.8 |
| 20260508121035 | 65 | 77 | 0.0 | 1.7 | 0.00 | 0.00 | 0.00 | 76 | 1012.9 |
| 20260508120034 | 65 | 74 | 0.0 | 0.9 | 0.00 | 0.00 | 0.00 | 76 | 1013.1 |
| 20260508115534 | 65 | 74 | 0.0 | 0.9 | 0.00 | 0.00 | 0.00 | 76 | 1013.3 |
| 20260508114534 | 65 | 70 | 0.0 | 0.9 | 0.00 | 0.00 | 0.00 | 76 | 1013.2 |
| 20260508114034 | 65 | 70 | 0.0 | 0.0 | 0.00 | 0.00 | 0.00 | 76 | 1013.4 |
| 20260508113533 | 65 | 70 | 0.0 | 0.0 | 0.00 | 0.00 | 0.00 | 76 | 1013.4 |
| 20260508113034 | 65 | 70 | 0.0 | 0.9 | 0.00 | 0.00 | 0.00 | 76 | 1013.4 |
| 20260508112534 | 65 | 70 | 0.0 | 0.9 | 0.00 | 0.00 | 0.00 | 76 | 1013.4 |
| 20260508112033 | 65 | 70 | 0.0 | 0.0 | 0.00 | 0.00 | 0.00 | 76 | 1013.4 |
| 20260508111533 | 65 | 70 | 0.0 | 0.0 | 0.00 | 0.00 | 0.00 | 76 | 1013.4 |
| 20260508111033 | 65 | 9 | 0.0 | 2.6 | 0.00 | 0.00 | 0.00 | 76 | 1013.2 |
| 20260508110533 | 65 | 342 | 0.9 | 2.6 | 0.00 | 0.00 | 0.00 | 76 | 1013.2 |
| 20260508110033 | 65 | 339 | 0.0 | 1.7 | 0.00 | 0.00 | 0.00 | 76 | 1013.2 |
| 20260508105533 | 65 | 36 | 0.9 | 1.7 | 0.00 | 0.00 | 0.00 | 76 | 1013.0 |
| 20260508105033 | 65 | 46 | 0.9 | 1.7 | 0.00 | 0.00 | 0.00 | 76 | 1013.1 |
| 20260508103533 | 65 | 76 | 0.0 | 0.9 | 0.00 | 0.00 | 0.00 | 76 | 1013.3 |
| 20260508102533 | 65 | 360 | 0.9 | 2.6 | 0.00 | 0.00 | 0.00 | 76 | 1013.0 |
| 20260508102033 | 64 | 47 | 0.0 | 1.7 | 0.00 | 0.00 | 0.00 | 76 | 1013.1 |
| 20260508101532 | 64 | 64 | 0.0 | 0.9 | 0.00 | 0.00 | 0.00 | 76 | 1012.9 |
| 20260508101032 | 64 | 22 | 0.9 | 0.9 | 0.00 | 0.00 | 0.00 | 75 | 1012.9 |
| 20260508100533 | 64 | 50 | 0.9 | 2.6 | 0.00 | 0.00 | 0.00 | 76 | 1013.1 |
| 20260508095532 | 64 | 13 | 1.7 | 1.7 | 0.00 | 0.00 | 0.00 | 76 | 1013.1 |
| 20260508095033 | 64 | 50 | 0.9 | 1.7 | 0.00 | 0.00 | 0.00 | 76 | 1013.1 |
| 20260508094533 | 64 | 69 | 0.0 | 0.9 | 0.00 | 0.00 | 0.00 | 76 | 1013.1 |
| 20260508094032 | 64 | 53 | 0.9 | 2.6 | 0.00 | 0.00 | 0.00 | 75 | 1013.3 |
| 20260508093032 | 64 | 355 | 1.7 | 2.6 | 0.00 | 0.00 | 0.00 | 75 | 1013.5 |
| 20260508092032 | 64 | 74 | 0.9 | 1.7 | 0.00 | 0.00 | 0.00 | 75 | 1013.4 |
| 20260508091532 | 64 | 11 | 0.0 | 2.6 | 0.00 | 0.00 | 0.00 | 75 | 1013.3 |
| 20260508091032 | 64 | 360 | 0.9 | 2.6 | 0.00 | 0.00 | 0.00 | 75 | 1013.1 |
| 20260508090532 | 64 | 78 | 0.0 | 0.9 | 0.00 | 0.00 | 0.00 | 75 | 1013.0 |
| 20260508090032 | 64 | 57 | 0.0 | 1.7 | 0.00 | 0.00 | 0.00 | 75 | 1013.0 |
| 20260508085532 | 64 | 13 | 0.0 | 1.7 | 0.00 | 0.00 | 0.00 | 75 | 1012.9 |
| 20260508085032 | 64 | 86 | 0.0 | 0.9 | 0.00 | 0.00 | 0.00 | 75 | 1013.0 |
| 20260508084532 | 64 | 5 | 0.9 | 0.9 | 0.00 | 0.00 | 0.00 | 75 | 1013.1 |
| 20260508084032 | 64 | 355 | 0.0 | 2.6 | 0.00 | 0.00 | 0.00 | 75 | 1013.2 |
| 20260508083532 | 64 | 19 | 0.0 | 2.6 | 0.00 | 0.00 | 0.00 | 75 | 1013.2 |
| 20260508083032 | 64 | 34 | 0.9 | 1.7 | 0.00 | 0.00 | 0.00 | 75 | 1013.3 |
| 20260508082532 | 64 | 80 | 0.0 | 1.7 | 0.00 | 0.00 | 0.00 | 75 | 1013.4 |
| 20260508082032 | 64 | 80 | 0.0 | 0.9 | 0.00 | 0.00 | 0.00 | 75 | 1013.3 |
| 20260508081032 | 64 | 78 | 0.0 | 0.9 | 0.00 | 0.00 | 0.00 | 75 | 1013.1 |
| 20260508080532 | 64 | 90 | 0.0 | 0.0 | 0.00 | 0.00 | 0.00 | 75 | 1013.4 |
| 20260508080032 | 64 | 90 | 0.0 | 0.9 | 0.00 | 0.00 | 0.00 | 75 | 1013.4 |
| 20260508075531 | 64 | 90 | 0.0 | 1.7 | 0.00 | 0.00 | 0.00 | 75 | 1013.2 |
| 20260508075031 | 64 | 44 | 1.7 | 2.6 | 0.00 | 0.00 | 0.00 | 74 | 1013.1 |
| 20260508074531 | 64 | 17 | 0.0 | 2.6 | 0.00 | 0.00 | 0.00 | 74 | 1013.1 |
| 20260508074032 | 64 | 5 | 0.0 | 1.7 | 0.00 | 0.00 | 0.00 | 75 | 1013.1 |
| 20260508073531 | 64 | 5 | 0.0 | 1.7 | 0.00 | 0.00 | 0.00 | 74 | 1013.2 |
| 20260508072031 | 64 | 96 | 0.0 | 3.5 | 0.00 | 0.00 | 0.00 | 74 | 1012.9 |
| 20260508071531 | 65 | 13 | 2.6 | 3.5 | 0.00 | 0.00 | 0.00 | 74 | 1013.1 |
| 20260508071032 | 65 | 68 | 0.0 | 2.6 | 0.00 | 0.00 | 0.00 | 74 | 1013.3 |
| 20260508070532 | 65 | 72 | 0.9 | 1.7 | 0.00 | 0.00 | 0.00 | 74 | 1013.2 |
| 20260508070032 | 65 | 95 | 0.9 | 1.7 | 0.00 | 0.00 | 0.00 | 74 | 1013.2 |
| 20260508065031 | 65 | 113 | 0.0 | 1.7 | 0.00 | 0.00 | 0.00 | 74 | 1013.6 |
| 20260508064531 | 65 | 84 | 0.9 | 1.7 | 0.00 | 0.00 | 0.00 | 74 | 1013.7 |
| 20260508064031 | 65 | 96 | 0.0 | 2.6 | 0.00 | 0.00 | 0.00 | 74 | 1013.9 |
| 20260508063031 | 65 | 355 | 0.9 | 2.6 | 0.00 | 0.00 | 0.00 | 74 | 1014.0 |
| 20260508061531 | 65 | 102 | 0.0 | 0.0 | 0.00 | 0.00 | 0.00 | 74 | 1014.1 |
| 20260508060531 | 64 | 102 | 0.0 | 0.0 | 0.00 | 0.00 | 0.00 | 74 | 1014.2 |
| 20260508060031 | 64 | 91 | 0.0 | 0.9 | 0.00 | 0.00 | 0.00 | 74 | 1013.9 |
| 20260508055531 | 64 | 110 | 0.0 | 0.9 | 0.00 | 0.00 | 0.00 | 74 | 1013.8 |
| 20260508055031 | 64 | 38 | 0.0 | 0.9 | 0.00 | 0.00 | 0.00 | 74 | 1014.0 |
| 20260508054531 | 64 | 93 | 0.9 | 1.7 | 0.00 | 0.00 | 0.00 | 74 | 1014.3 |
| 20260508054031 | 64 | 329 | 0.9 | 3.5 | 0.00 | 0.00 | 0.00 | 74 | 1014.3 |
| 20260508053530 | 64 | 360 | 1.7 | 3.5 | 0.00 | 0.00 | 0.00 | 74 | 1014.3 |
| 20260508053030 | 64 | 9 | 0.0 | 1.7 | 0.00 | 0.00 | 0.00 | 74 | 1014.1 |
| 20260508052530 | 64 | 27 | 0.9 | 1.7 | 0.00 | 0.00 | 0.00 | 74 | 1013.7 |
| 20260508052030 | 64 | 342 | 0.9 | 3.5 | 0.00 | 0.00 | 0.00 | 74 | 1014.1 |
| 20260508051530 | 64 | 78 | 1.7 | 3.5 | 0.00 | 0.00 | 0.00 | 73 | 1013.5 |
| 20260508051030 | 64 | 46 | 0.9 | 3.5 | 0.00 | 0.00 | 0.00 | 74 | 1013.5 |
| 20260508050530 | 64 | 103 | 2.6 | 2.6 | 0.00 | 0.00 | 0.00 | 74 | 1014.1 |
| 20260508050030 | 64 | 313 | 0.0 | 2.6 | 0.00 | 0.00 | 0.00 | 74 | 1014.3 |
| 20260508045530 | 64 | 34 | 0.0 | 3.5 | 0.00 | 0.00 | 0.00 | 74 | 1014.2 |
| 20260508045030 | 64 | 19 | 0.9 | 3.5 | 0.00 | 0.00 | 0.00 | 74 | 1014.5 |
| 20260508044530 | 64 | 94 | 1.7 | 2.6 | 0.00 | 0.00 | 0.00 | 74 | 1013.7 |
| 20260508044030 | 64 | 107 | 1.7 | 2.6 | 0.00 | 0.00 | 0.00 | 74 | 1013.2 |
| 20260508043530 | 64 | 56 | 0.0 | 0.9 | 0.00 | 0.00 | 0.00 | 74 | 1013.6 |
| 20260508043030 | 64 | 93 | 0.0 | 0.9 | 0.00 | 0.00 | 0.00 | 74 | 1013.5 |
| 20260508042529 | 64 | 109 | 0.0 | 0.9 | 0.00 | 0.00 | 0.00 | 74 | 1013.6 |
| 20260508042030 | 64 | 77 | 0.0 | 0.9 | 0.00 | 0.00 | 0.00 | 73 | 1013.8 |
| 20260508041529 | 65 | 77 | 0.9 | 0.9 | 0.00 | 0.00 | 0.00 | 73 | 1013.7 |
| 20260508041029 | 65 | 52 | 0.0 | 0.9 | 0.00 | 0.00 | 0.00 | 73 | 1014.1 |
| 20260508040529 | 65 | 71 | 0.0 | 0.9 | 0.00 | 0.00 | 0.00 | 73 | 1014.2 |
| 20260508040029 | 65 | 360 | 0.0 | 0.9 | 0.00 | 0.00 | 0.00 | 73 | 1014.4 |
| 20260508035529 | 65 | 72 | 0.0 | 0.9 | 0.00 | 0.00 | 0.00 | 73 | 1014.3 |
| 20260508035029 | 64 | 70 | 0.0 | 0.9 | 0.00 | 0.00 | 0.00 | 74 | 1014.3 |
| 20260508034530 | 64 | 65 | 0.0 | 0.9 | 0.00 | 0.00 | 0.00 | 74 | 1014.5 |
| 20260508034029 | 64 | 20 | 0.0 | 0.9 | 0.00 | 0.00 | 0.00 | 73 | 1014.7 |
| 20260508033529 | 64 | 338 | 0.0 | 1.7 | 0.00 | 0.00 | 0.00 | 74 | 1014.8 |
| 20260508033029 | 64 | 338 | 0.0 | 1.7 | 0.00 | 0.00 | 0.00 | 73 | 1014.7 |
| 20260508032029 | 64 | 342 | 0.9 | 4.3 | 0.00 | 0.00 | 0.00 | 73 | 1014.8 |
| 20260508031529 | 64 | 153 | 0.9 | 4.3 | 0.00 | 0.00 | 0.00 | 73 | 1014.9 |
| 20260508031029 | 64 | 330 | 1.7 | 2.6 | 0.00 | 0.00 | 0.00 | 73 | 1014.7 |
| 20260508030529 | 64 | 56 | 0.0 | 0.0 | 0.00 | 0.00 | 0.00 | 73 | 1014.4 |
| 20260508030030 | 65 | 56 | 0.0 | 1.7 | 0.00 | 0.00 | 0.00 | 73 | 1014.0 |
| 20260508025029 | 65 | 24 | 0.0 | 0.9 | 0.00 | 0.00 | 0.00 | 72 | 1014.0 |
| 20260508024529 | 65 | 24 | 0.0 | 1.7 | 0.00 | 0.00 | 0.00 | 72 | 1014.1 |
| 20260508024028 | 65 | 111 | 1.7 | 1.7 | 0.00 | 0.00 | 0.00 | 72 | 1013.9 |
| 20260508023529 | 65 | 111 | 0.9 | 1.7 | 0.00 | 0.00 | 0.00 | 72 | 1013.3 |
| 20260508022528 | 65 | 101 | 0.9 | 1.7 | 0.00 | 0.00 | 0.00 | 72 | 1012.9 |
| 20260508022029 | 65 | 74 | 0.9 | 1.7 | 0.00 | 0.00 | 0.00 | 72 | 1012.9 |
| 20260508021528 | 65 | 345 | 0.9 | 1.7 | 0.00 | 0.00 | 0.00 | 71 | 1012.9 |
| 20260508020028 | 65 | 131 | 0.0 | 1.7 | 0.00 | 0.00 | 0.00 | 70 | 1012.5 |
| 20260508015527 | 65 | 90 | 0.9 | 2.6 | 0.00 | 0.00 | 0.00 | 70 | 1012.4 |
| 20260508015027 | 66 | 111 | 1.7 | 3.5 | 0.00 | 0.00 | 0.00 | 70 | 1012.3 |
| 20260508014527 | 66 | 105 | 0.9 | 3.5 | 0.00 | 0.00 | 0.00 | 70 | 1012.5 |
| 20260508014027 | 66 | 146 | 1.7 | 5.2 | 0.00 | 0.00 | 0.00 | 69 | 1012.9 |
| 20260508012527 | 66 | 78 | 0.0 | 2.6 | 0.00 | 0.00 | 0.00 | 69 | 1012.9 |
| 20260508010527 | 66 | 115 | 0.9 | 2.6 | 0.00 | 0.00 | 0.00 | 68 | 1012.6 |
| 20260508010027 | 67 | 94 | 0.9 | 2.6 | 0.00 | 0.00 | 0.00 | 68 | 1012.8 |
| 20260508005026 | 67 | 265 | 2.6 | 6.1 | 0.00 | 0.00 | 0.00 | 67 | 1012.6 |
| 20260508004026 | 67 | 93 | 0.0 | 1.7 | 0.00 | 0.00 | 0.00 | 66 | 1013.2 |
| 20260508003526 | 67 | 58 | 0.0 | 1.7 | 0.00 | 0.00 | 0.00 | 66 | 1013.4 |
| 20260508003026 | 68 | 105 | 0.0 | 1.7 | 0.00 | 0.00 | 0.00 | 66 | 1013.5 |
| 20260508002526 | 68 | 88 | 1.7 | 1.7 | 0.00 | 0.00 | 0.00 | 66 | 1013.4 |
| 20260508002026 | 68 | 95 | 0.0 | 5.2 | 0.00 | 0.00 | 0.00 | 66 | 1013.6 |
| 20260508001526 | 68 | 95 | 2.6 | 5.2 | 0.00 | 0.00 | 0.00 | 65 | 1013.8 |
| 20260508000526 | 69 | 83 | 0.9 | 2.6 | 0.00 | 0.00 | 0.00 | 65 | 1013.9 |
| 20260507235526 | 69 | 100 | 0.9 | 1.7 | 0.00 | 0.00 | 0.00 | 65 | 1014.1 |
| 20260507235026 | 69 | 11 | 0.0 | 0.9 | 0.00 | 0.00 | 0.00 | 65 | 1014.0 |
| 20260507234026 | 70 | 112 | 0.0 | 3.5 | 0.00 | 0.00 | 0.00 | 64 | 1014.3 |
| 20260507233526 | 70 | 11 | 1.7 | 3.5 | 0.00 | 0.00 | 0.00 | 64 | 1014.4 |
| 20260507233026 | 70 | 346 | 0.0 | 1.7 | 0.00 | 0.00 | 0.00 | 65 | 1014.4 |
| 20260507232526 | 70 | 198 | 0.0 | 5.2 | 0.00 | 0.00 | 0.00 | 65 | 1014.3 |
| 20260507232025 | 70 | 71 | 1.7 | 5.2 | 0.00 | 0.00 | 0.00 | 65 | 1014.0 |
| 20260507231526 | 70 | 107 | 0.0 | 2.6 | 0.00 | 0.00 | 0.00 | 65 | 1014.0 |
| 20260507230525 | 70 | 93 | 0.0 | 3.5 | 0.00 | 0.00 | 0.00 | 64 | 1014.4 |
| 20260507230025 | 69 | 188 | 1.7 | 2.6 | 0.00 | 0.00 | 0.00 | 65 | 1014.2 |
| 20260507225525 | 69 | 314 | 0.9 | 3.5 | 0.00 | 0.00 | 0.00 | 65 | 1014.2 |
| 20260507225025 | 69 | 78 | 1.7 | 3.5 | 0.00 | 0.00 | 0.00 | 65 | 1014.4 |
| 20260507224525 | 69 | 163 | 0.9 | 3.5 | 0.00 | 0.00 | 0.00 | 65 | 1014.5 |
| 20260507224025 | 69 | 130 | 0.9 | 6.1 | 0.00 | 0.00 | 0.00 | 65 | 1014.4 |
| 20260507223525 | 69 | 123 | 3.5 | 6.1 | 0.00 | 0.00 | 0.00 | 66 | 1014.6 |
| 20260507223025 | 69 | 111 | 0.0 | 2.6 | 0.00 | 0.00 | 0.00 | 66 | 1014.8 |
| 20260507222525 | 69 | 133 | 0.0 | 3.5 | 0.00 | 0.00 | 0.00 | 67 | 1014.9 |
| 20260507221525 | 69 | 113 | 0.0 | 3.5 | 0.00 | 0.00 | 0.00 | 67 | 1014.8 |
| 20260507221025 | 69 | 78 | 0.9 | 3.5 | 0.00 | 0.00 | 0.00 | 67 | 1014.7 |
| 20260507220525 | 68 | 118 | 0.9 | 2.6 | 0.00 | 0.00 | 0.00 | 66 | 1014.7 |
| 20260507220024 | 68 | 23 | 0.0 | 7.8 | 0.00 | 0.00 | 0.00 | 67 | 1014.8 |
| 20260507215524 | 68 | 5 | 7.8 | 7.8 | 0.00 | 0.00 | 0.00 | 67 | 1014.8 |
| 20260507214524 | 68 | 344 | 1.7 | 4.3 | 0.00 | 0.00 | 0.00 | 67 | 1014.4 |
| 20260507214024 | 68 | 12 | 0.9 | 3.5 | 0.00 | 0.00 | 0.00 | 67 | 1014.5 |
| 20260507213525 | 68 | 360 | 1.7 | 3.5 | 0.00 | 0.00 | 0.00 | 68 | 1014.6 |